This is the latest recevied weather packets stored in our database for station/object KB3AWQ. If no packets are shown the sender has not sent any weather packets the latest 10 day(s).
| Time | Temp. | Humidity | Pressure | Rain* | Wind** | Luminosity | Snow |
|---|---|---|---|---|---|---|---|
| 1788030266 | 27.22° C | 47% | 1024.1 hPa | 0 mm | - | 718 W/m² | - |
| 1788029967 | 27.22° C | 48% | 1024.1 hPa | 0 mm | - | 729 W/m² | - |
| 1788029666 | 27.22° C | 47% | 1024.2 hPa | 0 mm | - | 741 W/m² | - |
| 1788029366 | 26.67° C | 48% | 1024.3 hPa | 0 mm | - | 751 W/m² | - |
| 1788029066 | 26.11° C | 47% | 1024.3 hPa | 0 mm | - | 761 W/m² | - |
| 1788028767 | 25.56° C | 53% | 1024.4 hPa | 0 mm | - | 770 W/m² | - |
| 1788028466 | 25.56° C | 51% | 1024.4 hPa | 0 mm | - | 779 W/m² | - |
| 1788028166 | 26.11° C | 50% | 1024.5 hPa | 0 mm | - | 787 W/m² | - |
| 1788027867 | 26.11° C | 49% | 1024.6 hPa | 0 mm | - | 797 W/m² | - |
| 1788027567 | 26.11° C | 48% | 1024.5 hPa | 0 mm | - | 804 W/m² | - |
| 1788027266 | 25.56° C | 47% | 1024.5 hPa | 0 mm | - | 813 W/m² | - |
| 1788026966 | 25.56° C | 48% | 1024.6 hPa | 0 mm | - | 819 W/m² | - |
| 1788026666 | 25° C | 47% | 1024.6 hPa | 0 mm | - | 826 W/m² | - |
| 1788026366 | 25° C | 49% | 1024.6 hPa | 0 mm | - | 833 W/m² | - |
| 1788026066 | 25° C | 50% | 1024.6 hPa | 0 mm | - | 839 W/m² | - |
| 1788025766 | 24.44° C | 48% | 1024.7 hPa | 0 mm | - | 843 W/m² | - |
| 1788025466 | 25° C | 51% | 1024.7 hPa | 0 mm | - | 848 W/m² | - |
| 1788025166 | 25.56° C | 46% | 1024.8 hPa | 0 mm | - | 854 W/m² | - |
| 1788024866 | 25.56° C | 48% | 1024.8 hPa | 0 mm | - | 858 W/m² | - |
| 1788024566 | 25° C | 50% | 1024.8 hPa | 0 mm | - | 860 W/m² | - |
| 1788024267 | 24.44° C | 50% | 1024.8 hPa | 0 mm | - | 862 W/m² | - |
| 1788023967 | 25.56° C | 48% | 1024.8 hPa | 0 mm | - | 866 W/m² | - |
| 1788023666 | 25° C | 51% | 1024.9 hPa | 0 mm | - | 868 W/m² | - |
| 1788023366 | 25° C | 52% | 1024.9 hPa | 0 mm | - | 870 W/m² | - |
| 1788023066 | 24.44° C | 52% | 1024.8 hPa | 0 mm | - | 871 W/m² | - |
* Rain latest hour (hover to see other rain measurements)
** Current wind speed in m/s (hover to see current wind gust speed)